sat.trackr.live / text

‹ back to catalog

STARLINK-35428

NORAD 66115 · 2025-237B

PAYLOAD ACTIVE UNKNOWN

§ Identity

Operator
Country
US
Launch date
2025-10-22
Launch site
AFWTR
Launch vehicle
Mass (kg)
RCS (m²)

Purposes: comms

External: N2YO · Heavens-Above · Gunter

§ Orbital elements

Epoch: 2026-09-20T03:48:47.965536Z

Period
93.85 min
Inclination
53.1588°
Eccentricity
0.0001215
Mean motion
15.34399766 rev/d
Perigee alt
461.9 km
Apogee alt
463.5 km
Semi-major
6,840.8 km
B*
6.2649e-4
RAAN
214.9921°
Arg perigee
83.9742°
Mean anomaly
276.1399°
Rev number
5,239

§ Raw data

STARLINK-354281 66115U 25237B   26263.15888849  .00020849  00000+0  62649-3 0  99902 66115  53.1588 214.9921 0001215  83.9742 276.1399 15.34399766 52390

JSON: /api/v1/satellites/66115 · /tle

For live sub-satellite position, see the globe view (requires WebGL).

§ Visibility from observer

Set your observer location to see the next 7 days of passes ≥ 10°. The values pass through the URL so the page stays shareable.

No JS? Fill the form by hand. The geolocation button needs JavaScript.